WF3W Weather Reports


time (UTC)temp
F
wind
direction
speed
knots
gust
knots
rain 1hr
in
rain 24hr
in
rain mn
in
humidity
%
barometer
mb
20260904025235 78 245 0.0 0.0 0.00 0.44 0.44 90 1014.2
20260904012238 79 245 0.0 0.0 0.00 0.44 0.44 88 1014.9
20260904010727 80 245 0.0 0.0 0.00 0.44 0.44 86 1014.5
20260904005238 80 245 0.0 0.0 0.00 0.44 0.44 84 1014.6
20260904003758 80 245 0.0 0.0 0.00 0.44 0.44 82 1014.5
20260904002242 80 245 0.0 0.0 0.00 0.44 0.44 81 1014.2
20260903183738 88 244 1.7 7.8 0.00 0.45 0.44 69 1014.9
20260903182232 88 245 0.0 6.1 0.00 0.45 0.44 68 1014.9
20260903180746 88 245 1.7 5.2 0.00 0.45 0.44 68 1015.2
20260903175243 87 245 0.0 6.1 0.00 0.45 0.44 72 1015.2
20260903173739 86 245 1.7 7.8 0.00 0.45 0.44 74 1015.5
20260903172236 85 246 2.6 6.1 0.00 0.45 0.44 75 1015.8
20260903170731 83 247 0.9 5.2 0.00 0.45 0.44 79 1015.9
20260903165230 83 247 0.9 3.5 0.00 0.45 0.44 80 1016.2
20260903163727 82 247 0.0 3.5 0.00 0.45 0.44 81 1016.0
20260903162220 81 247 1.7 3.5 0.00 0.45 0.44 84 1016.6
20260903160739 80 247 0.9 4.3 0.00 0.45 0.44 85 1016.9
20260903155253 80 247 0.9 6.1 0.00 0.45 0.44 88 1017.3
20260903153750 79 247 0.0 5.2 0.00 0.45 0.44 89 1017.3
20260903152243 78 247 0.9 1.7 0.00 0.45 0.44 99 1017.5
20260903150737 76 247 0.9 2.6 0.00 0.45 0.44 99 1017.1
20260903145233 76 247 0.0 2.6 0.00 0.45 0.44 100 1017.1
20260903143729 75 248 0.0 7.0 0.00 0.45 0.44 100 1017.2
20260903142227 75 248 0.0 2.6 0.00 0.45 0.44 100 1017.1